• In Hungary
  • List of Countries
  • For 7 days
  • Water Temperature
  • Satellite Maps
  • Weather Map
  • News
  • Weather Widgets
  • user-avatar
    Login

    Hourly Weather Podzamcze

    Today, 21 January, Sunday

    Time Temperature Precipitation Wind Pressure Humidity
    00:00 -4°C° 0 mm 2 mps 718 mmHg 90%
    01:00 -4°C° 0 mm 2 mps 718 mmHg 91%
    02:00 -4°C° 0.1 mm 2 mps 718 mmHg 91%
    03:00 -4°C° 0.1 mm 2 mps 718 mmHg 91%
    04:00 -4°C° 0.1 mm 2 mps 718 mmHg 91%
    05:00 -3°C° 0.2 mm 2 mps 718 mmHg 91%
    06:00 -3°C° 0.2 mm 2 mps 718 mmHg 91%
    07:00 -3°C° 0.2 mm 2 mps 717 mmHg 92%
    08:00 -3°C° 0.2 mm 2 mps 718 mmHg 90%
    09:00 -2°C° 0.2 mm 2 mps 718 mmHg 88%
    10:00 -2°C° 0.2 mm 2 mps 718 mmHg 86%
    11:00 -2°C° 0.3 mm 2 mps 718 mmHg 87%
    12:00 -1°C° 0.3 mm 2 mps 718 mmHg 87%
    13:00 -1°C° 0.3 mm 2 mps 718 mmHg 87%
    14:00 -2°C° 0.4 mm 2 mps 719 mmHg 90%
    15:00 -2°C° 0.4 mm 2 mps 719 mmHg 93%
    16:00 -2°C° 0.4 mm 2 mps 719 mmHg 96%
    17:00 -2°C° 0.5 mm 3 mps 720 mmHg 96%
    18:00 -2°C° 0.5 mm 3 mps 720 mmHg 96%
    19:00 -4°C° 0.5 mm 3 mps 721 mmHg 95%
    20:00 -4°C° 0.5 mm 4 mps 721 mmHg 95%
    21:00 -4°C° 0.5 mm 4 mps 722 mmHg 95%
    22:00 -4°C° 0.5 mm 4 mps 722 mmHg 94%
    23:00 -4°C° 0.4 mm 4 mps 722 mmHg 94%

    Tomorrow, 22 January, Monday

    Time Temperature Precipitation Wind Pressure Humidity
    00:00 -5°C° 0.4 mm 4 mps 723 mmHg 94%
    01:00 -5°C° 0.4 mm 4 mps 723 mmHg 94%
    02:00 -5°C° 0.2 mm 4 mps 723 mmHg 94%
    03:00 -5°C° 0.2 mm 4 mps 723 mmHg 94%
    04:00 -7°C° 0.2 mm 4 mps 723 mmHg 93%
    05:00 -7°C° 0.1 mm 4 mps 723 mmHg 94%
    06:00 -7°C° 0.1 mm 4 mps 724 mmHg 94%
    07:00 -7°C° 0.1 mm 4 mps 724 mmHg 94%
    08:00 -6°C° 0.1 mm 3 mps 724 mmHg 93%
    09:00 -6°C° 0.1 mm 3 mps 724 mmHg 92%
    10:00 -6°C° 0.1 mm 3 mps 725 mmHg 91%
    11:00 -5°C° 0 mm 3 mps 725 mmHg 90%
    12:00 -5°C° 0 mm 3 mps 725 mmHg 89%
    13:00 -5°C° 0 mm 3 mps 725 mmHg 88%
    14:00 -5°C° 0 mm 3 mps 725 mmHg 89%
    15:00 -4°C° 0 mm 2 mps 725 mmHg 90%
    16:00 -4°C° 0 mm 2 mps 725 mmHg 91%
    17:00 -5°C° 0 mm 2 mps 725 mmHg 92%
    18:00 -5°C° 0 mm 2 mps 726 mmHg 93%
    19:00 -5°C° 0 mm 2 mps 726 mmHg 94%
    20:00 -5°C° 0 mm 2 mps 727 mmHg 94%
    21:00 -5°C° 0 mm 2 mps 727 mmHg 94%
    22:00 -6°C° 0 mm 2 mps 727 mmHg 94%
    23:00 -6°C° 0 mm 2 mps 727 mmHg 94%

    Day after tomorrow, 23 January, Tuesday

    Time Temperature Precipitation Wind Pressure Humidity
    00:00 -6°C° 0 mm 2 mps 728 mmHg 93%
    01:00 -6°C° 0 mm 2 mps 728 mmHg 93%
    02:00 -6°C° 0 mm 2 mps 728 mmHg 93%
    03:00 -7°C° 0 mm 2 mps 728 mmHg 94%
    04:00 -7°C° 0 mm 2 mps 729 mmHg 95%
    05:00 -7°C° 0 mm 2 mps 729 mmHg 95%
    06:00 -7°C° 0 mm 1 mps 729 mmHg 96%
    07:00 -7°C° 0 mm 1 mps 730 mmHg 96%
    08:00 -7°C° 0 mm 2 mps 730 mmHg 93%
    09:00 -6°C° 0 mm 2 mps 731 mmHg 90%
    10:00 -5°C° 0 mm 2 mps 732 mmHg 87%
    11:00 -4°C° 0 mm 2 mps 732 mmHg 85%
    12:00 -3°C° 0 mm 2 mps 732 mmHg 82%
    13:00 -3°C° 0 mm 2 mps 732 mmHg 80%
    14:00 -3°C° 0 mm 2 mps 732 mmHg 83%
    15:00 -4°C° 0 mm 2 mps 733 mmHg 86%
    16:00 -5°C° 0 mm 2 mps 733 mmHg 89%
    17:00 -6°C° 0 mm 2 mps 733 mmHg 90%
    18:00 -6°C° 0 mm 2 mps 734 mmHg 90%
    19:00 -7°C° 0 mm 2 mps 734 mmHg 91%
    20:00 -7°C° 0 mm 2 mps 734 mmHg 91%
    21:00 -7°C° 0 mm 2 mps 735 mmHg 90%
    22:00 -7°C° 0 mm 2 mps 735 mmHg 90%
    23:00 -7°C° 0 mm 2 mps 735 mmHg 89%

    24 January, Wednesday

    Time Temperature Precipitation Wind Pressure Humidity
    00:00 -7°C° 0 mm 2 mps 735 mmHg 89%
    01:00 -7°C° 0 mm 2 mps 735 mmHg 88%
    02:00 -7°C° 0 mm 2 mps 735 mmHg 88%
    03:00 -7°C° 0 mm 2 mps 735 mmHg 87%
    04:00 -7°C° 0 mm 2 mps 735 mmHg 87%
    05:00 -8°C° 0 mm 3 mps 735 mmHg 87%
    06:00 -8°C° 0 mm 3 mps 735 mmHg 87%
    07:00 -8°C° 0 mm 3 mps 735 mmHg 87%
    08:00 -7°C° 0 mm 3 mps 736 mmHg 85%
    09:00 -7°C° 0 mm 4 mps 736 mmHg 83%
    10:00 -5°C° 0 mm 4 mps 736 mmHg 81%
    11:00 -4°C° 0 mm 4 mps 736 mmHg 81%
    12:00 -3°C° 0 mm 4 mps 736 mmHg 81%
    13:00 -3°C° 0 mm 4 mps 735 mmHg 80%
    14:00 -3°C° 0 mm 4 mps 735 mmHg 82%
    15:00 -4°C° 0 mm 4 mps 735 mmHg 83%
    16:00 -5°C° 0 mm 4 mps 735 mmHg 84%
    17:00 -5°C° 0 mm 4 mps 735 mmHg 85%
    18:00 -5°C° 0 mm 4 mps 735 mmHg 86%
    19:00 -7°C° 0 mm 4 mps 735 mmHg 87%
    20:00 -7°C° 0 mm 4 mps 735 mmHg 87%
    21:00 -7°C° 0 mm 4 mps 735 mmHg 88%
    22:00 -7°C° 0 mm 4 mps 734 mmHg 88%
    23:00 -7°C° 0 mm 4 mps 734 mmHg 88%

    25 January, Thursday

    Time Temperature Precipitation Wind Pressure Humidity
    00:00 -7°C° 0 mm 4 mps 734 mmHg 89%
    01:00 -7°C° 0 mm 4 mps 734 mmHg 89%
    02:00 -7°C° 0 mm 4 mps 734 mmHg 89%
    03:00 -7°C° 0 mm 4 mps 733 mmHg 89%
    04:00 -7°C° 0 mm 4 mps 733 mmHg 90%
    05:00 -7°C° 0 mm 4 mps 733 mmHg 89%
    06:00 -7°C° 0 mm 4 mps 732 mmHg 89%
    07:00 -7°C° 0 mm 4 mps 732 mmHg 89%
    08:00 -5°C° 0 mm 4 mps 732 mmHg 87%
    09:00 -5°C° 0 mm 4 mps 732 mmHg 85%
    10:00 -4°C° 0 mm 4 mps 732 mmHg 82%
    11:00 -3°C° 0 mm 4 mps 732 mmHg 82%
    12:00 -1°C° 0 mm 3 mps 731 mmHg 82%
    13:00 -1°C° 0 mm 3 mps 731 mmHg 81%
    14:00 -1°C° 0 mm 3 mps 730 mmHg 82%
    15:00 -2°C° 0 mm 3 mps 730 mmHg 84%
    16:00 -4°C° 0 mm 3 mps 730 mmHg 85%
    17:00 -4°C° 0 mm 3 mps 730 mmHg 85%
    18:00 -5°C° 0 mm 3 mps 730 mmHg 86%
    19:00 -5°C° 0 mm 3 mps 729 mmHg 86%
    20:00 -5°C° 0 mm 3 mps 729 mmHg 86%
    21:00 -6°C° 0 mm 3 mps 729 mmHg 86%
    22:00 -6°C° 0 mm 3 mps 729 mmHg 85%
    23:00 -6°C° 0 mm 3 mps 729 mmHg 85%

    26 January, Friday

    Time Temperature Precipitation Wind Pressure Humidity
    00:00 -6°C° 0 mm 3 mps 729 mmHg 85%
    01:00 -6°C° 0 mm 3 mps 729 mmHg 84%
    02:00 -6°C° 0 mm 3 mps 729 mmHg 84%
    03:00 -6°C° 0 mm 3 mps 729 mmHg 84%
    04:00 -6°C° 0 mm 3 mps 729 mmHg 84%
    05:00 -7°C° 0 mm 3 mps 729 mmHg 82%
    06:00 -7°C° 0 mm 3 mps 729 mmHg 80%
    07:00 -7°C° 0 mm 3 mps 729 mmHg 79%
    08:00 -6°C° 0 mm 3 mps 730 mmHg 75%
    09:00 -5°C° 0 mm 4 mps 730 mmHg 71%
    10:00 -4°C° 0 mm 4 mps 730 mmHg 67%
    11:00 -3°C° 0 mm 4 mps 730 mmHg 68%
    12:00 -3°C° 0 mm 4 mps 730 mmHg 68%
    13:00 -2°C° 0 mm 4 mps 730 mmHg 69%
    14:00 -3°C° 0 mm 4 mps 730 mmHg 70%
    15:00 -3°C° 0 mm 4 mps 730 mmHg 72%
    16:00 -4°C° 0 mm 3 mps 730 mmHg 74%
    17:00 -4°C° 0 mm 4 mps 730 mmHg 74%
    18:00 -5°C° 0 mm 4 mps 730 mmHg 74%
    19:00 -5°C° 0 mm 4 mps 730 mmHg 74%
    20:00 -5°C° 0 mm 4 mps 730 mmHg 73%
    21:00 -5°C° 0 mm 4 mps 731 mmHg 72%
    22:00 -5°C° 0 mm 3 mps 731 mmHg 70%
    23:00 -5°C° 0 mm 3 mps 731 mmHg 71%
    Show more